Нелькан

Россия / Республика Саха (Якутия)     64°10′54″N   143°01′40″E
темп.,
°C
ветер,
м/с
пор.,
м/с
влажн.,
%
обл.,
%
осадки,
мм/ч
давл.,
гПа
погр.,
м
27 февраля, сб
сб2723:00−33ю119787 0.0 103219
02:00−34всв019797 0.0 103119
05:00−34зюз009992 0.0 103119
08:00−35вюв009891 0.0 103119
11:00−32ююв009478 0.0 103131
14:00−30з118949 0.0 1029152
17:00−29з009549 0.0 102819
20:00−34в0110031 0.0 103019
28 февраля, вс
вс2823:00−35ю1110015 0.0 102919
02:00−35в0010012 0.0 102919
05:00−36юв001007 0.0 102719
08:00−37з001003 0.0 102719
11:00−32зсз11933 0.0 102531
14:00−29з21900 0.0 1023166
17:00−30з119526 0.0 102219
20:00−35з019915 0.0 102319
1 марта, пн
пн123:00−35в0010047 0.0 102319
02:00−36ссз0010080 0.0 102319
05:00−36юз0010085 0.0 102219
08:00−36зсз0010099 0.0 102219
11:00−33зюз1097100 0.0 102235
14:00−31з119298 0.0 1020174
17:00−30з119594 0.0 101919
20:00−35з009955 0.0 102119
2 марта, вт
вт223:00−35з009968 0.0 102219
02:00−36сз0010084 0.0 102219
05:00−35зсз1110083 0.0 102219
08:00−36зюз1110066 0.0 102219
11:00−31з119481 0.0 102267
14:00−29з2189100 0.0 1020168
17:00−28з1191100 0.0 1020105
20:00−30з1191100 0.0 102119
3 марта, ср
ср323:00−30зсз1187100 0.0 102219
02:00−30з1186100 0.0 102219
05:00−30зсз1189100 0.0 102119
08:00−30з1199100 0.1 102019
11:00−27з1197100 0.3 1019120
14:00−26з2192100 0.1 1015246
17:00−25зсз1294100 0.3 1013207
20:00−27сз1197100 0.1 101219